Location: *
(46.1006°N, 1.8394°E)
Time: 05:09:48
(UTC+00:00)

Meteor 2-17 Rocket - Pass Details

Date: 20 September 2019
Orbit: 934 x 957 km, 82.5° (Epoch: 14 October)

Event Time Altitude Azimuth Distance (km) Brightness Sun altitude
Rises 19:36:00 0° 350° (N) 3,618 7.9 -17.9°
Reaches altitude 10° 19:38:30 10° 351° (N) 2,666 7.2 -18.3°
Maximum altitude 19:44:36 89° 266° (W) 944 4.4 -19.3°
Enters shadow 19:50:25 11° 174° (S) 2,552 6.4 -20.2°
